Weather History for Wayne, NE

Change the Weather History Date:

Friday, August 23, 2013

  Actual Average (KOFK) Record (KOFK)
Temperature  
Mean Temperature 75 °F 72 °F  
Max Temperature 84 °F 83 °F 104 °F (1938)
Min Temperature 66 °F 61 °F 43 °F (1942)
Degree Days  
Heating Degree Days 0 0  
Month to date heating degree days 0  
Since 1 June heating degree days 34  
Since 1 July heating degree days 4  
Cooling Degree Days 10 7  
Month to date cooling degree days 203  
Year to date cooling degree days 764  
Since 1 June cooling degree days 703  
Growing Degree Days 25 (Base 50)    
Moisture  
Dew Point 69 °F    
Average Humidity 83    
Maximum Humidity 100    
Minimum Humidity 63    
Precipitation  
Precipitation 0.00 in 0.09 in 1.19 in (2007)
Month to date precipitation 2.50  
Year to date precipitation 19.78  
Snow  
Snow 0.00 in 0.00 in - ()
Month to date snowfall 0.0  
Since 1 July snowfall 0.0  
Snow Depth -    
Sea Level Pressure  
Sea Level Pressure 30.04 in    
Wind  
Wind Speed 5 mph (SSE)    
Max Wind Speed 18 mph    
Max Gust Speed 24 mph    
Visibility 8 miles    
Events      
T = Trace of Precipitation, MM = Missing Value Source: NWS Daily Summary

Daily Weather History Graph

Daily Weather History Graph

Search for Another Location

Airport:

Trip Planner

Search our weather history database for the weather conditions in past years. The results will help you decide how hot, cold, wet, or windy it might be!

Date:

Astronomy

Aug. 23, 2013 Rise Set
Actual Time 6:44 AM CDT 8:16 PM CDT
Civil Twilight 6:14 AM CDT 8:45 PM CDT
Nautical Twilight 5:38 AM CDT 9:20 PM CDT
Astronomical Twilight 5:00 AM CDT 9:58 PM CDT
Moon 9:30 PM CDT (8/23) 9:45 AM CDT (8/23)
Length of Visible Light 14h 30m
Length of Day
13h 32m
Waning Gibbous, 91% of the Moon is Illuminated
Aug 23
Waning Gibbous
Aug 28
Last Quarter
Sep 5
New
Sep 12
First Quarter
Sep 19
Full

Hourly Weather History & Observations

Time (CDT) Temp. Heat Index Dew Point Humidity Pressure Visibility Wind Dir Wind Speed Gust Speed Precip Events Conditions
12:15 AM 66.9 °F - 66.2 °F 98% 30.10 in 4.0 mi Calm Calm - N/A   Clear
12:35 AM 67.1 °F - 66.2 °F 97% 30.10 in 7.0 mi Calm Calm - N/A   Clear
12:55 AM 66.6 °F - 65.7 °F 97% 30.10 in 5.0 mi Calm Calm - N/A   Clear
1:15 AM 66.6 °F - 65.7 °F 97% 30.09 in 3.0 mi Calm Calm - N/A   Clear
1:35 AM 66.4 °F - 65.5 °F 97% 30.09 in 2.5 mi Calm Calm - N/A   Mostly Cloudy
1:55 AM 67.1 °F - 66.4 °F 98% 30.09 in 2.5 mi Calm Calm - N/A   Overcast
2:15 AM 67.3 °F - 66.6 °F 98% 30.09 in 2.5 mi Calm Calm - N/A   Overcast
2:35 AM 67.1 °F - 66.4 °F 98% 30.09 in 2.0 mi Calm Calm - N/A   Overcast
2:37 AM 66.2 °F - 66.2 °F 100% 30.09 in 2.0 mi Calm Calm - N/A   Mostly Cloudy
2:55 AM 66.7 °F - 66.2 °F 98% 30.09 in 2.0 mi Calm Calm - N/A   Overcast
3:15 AM 67.1 °F - 66.4 °F 98% 30.09 in 2.5 mi Calm Calm - N/A   Overcast
3:35 AM 67.3 °F - 66.6 °F 98% 30.09 in 4.0 mi Calm Calm - N/A   Mostly Cloudy
3:55 AM 67.1 °F - 66.2 °F 97% 30.09 in 3.0 mi Calm Calm - N/A   Scattered Clouds
4:15 AM 66.2 °F - 65.5 °F 98% 30.09 in 3.0 mi Calm Calm - N/A   Clear
4:35 AM 66.2 °F - 65.5 °F 98% 30.08 in 2.0 mi Calm Calm - N/A   Mostly Cloudy
4:55 AM 67.5 °F - 66.7 °F 98% 30.08 in 7.0 mi Calm Calm - N/A   Mostly Cloudy
5:15 AM 67.5 °F - 66.6 °F 97% 30.07 in 5.0 mi Calm Calm - N/A   Scattered Clouds
5:35 AM 66.7 °F - 65.8 °F 97% 30.07 in 5.0 mi Calm Calm - N/A   Clear
5:55 AM 67.1 °F - 66.0 °F 96% 30.07 in 7.0 mi Calm Calm - N/A   Clear
6:15 AM 67.3 °F - 66.4 °F 97% 30.07 in 7.0 mi Calm Calm - N/A   Clear
6:35 AM 67.3 °F - 66.2 °F 96% 30.06 in 5.0 mi Calm Calm - N/A   Clear
6:55 AM 67.3 °F - 66.2 °F 96% 30.06 in 5.0 mi South 3.5 mph - N/A   Clear
7:15 AM 67.8 °F - 66.4 °F 95% 30.07 in 5.0 mi Calm Calm - N/A   Clear
7:35 AM 68.2 °F - 66.7 °F 95% 30.07 in 7.0 mi Calm Calm - N/A   Clear
7:55 AM 69.1 °F - 67.3 °F 94% 30.07 in 7.0 mi SE 3.5 mph - N/A   Scattered Clouds
8:15 AM 69.8 °F - 68.0 °F 94% 30.07 in 7.0 mi SE 5.8 mph - N/A   Mostly Cloudy
8:35 AM 70.5 °F - 68.2 °F 92% 30.08 in 7.0 mi SSE 5.8 mph - N/A   Mostly Cloudy
8:55 AM 71.2 °F - 69.1 °F 93% 30.08 in 7.0 mi SSE 4.6 mph - N/A   Mostly Cloudy
9:15 AM 72.1 °F - 69.8 °F 92% 30.07 in 7.0 mi SSE 8.1 mph - N/A   Mostly Cloudy
9:35 AM 74.1 °F - 71.1 °F 90% 30.07 in 7.0 mi SSE 10.4 mph - N/A   Mostly Cloudy
9:55 AM 73.9 °F - 70.7 °F 90% 30.07 in 7.0 mi SSE 9.2 mph - N/A   Overcast
10:15 AM 74.5 °F - 71.1 °F 89% 30.06 in 7.0 mi SSE 12.7 mph - N/A   Mostly Cloudy
10:35 AM 75.4 °F - 71.4 °F 87% 30.06 in 10.0 mi SSE 10.4 mph - N/A   Mostly Cloudy
10:55 AM 77.7 °F - 72.0 °F 82% 30.05 in 10.0 mi SSE 12.7 mph - N/A   Mostly Cloudy
11:15 AM 78.8 °F - 72.5 °F 81% 30.05 in 10.0 mi SSE 12.7 mph 17.3 mph N/A   Scattered Clouds
11:35 AM 79.9 °F - 73.0 °F 80% 30.05 in 10.0 mi SSE 10.4 mph - N/A   Clear
11:55 AM 80.6 °F 85.0 °F 72.9 °F 77% 30.05 in 10.0 mi South 11.5 mph - N/A   Clear
12:15 PM 81.7 °F 86.7 °F 72.7 °F 74% 30.04 in 10.0 mi South 10.4 mph - N/A   Clear
12:35 PM 82.2 °F 88.0 °F 73.8 °F 75% 30.04 in 10.0 mi SSE 10.4 mph - N/A   Clear
12:55 PM 82.9 °F 89.4 °F 73.9 °F 74% 30.03 in 10.0 mi SSE 10.4 mph - N/A   Clear
1:15 PM 83.5 °F 90.0 °F 73.6 °F 72% 30.03 in 10.0 mi SSE 10.4 mph - N/A   Clear
1:35 PM 83.8 °F 89.8 °F 72.7 °F 69% 30.02 in 10.0 mi SSE 13.8 mph 19.6 mph N/A   Clear
1:55 PM 84.2 °F 90.9 °F 73.6 °F 70% 30.02 in 10.0 mi SSE 15.0 mph - N/A   Clear
2:15 PM 84.2 °F 90.6 °F 73.2 °F 69% 30.02 in 10.0 mi SSE 15.0 mph - N/A   Clear
2:35 PM 84.4 °F 90.3 °F 72.5 °F 67% 30.01 in 10.0 mi SSE 13.8 mph - N/A   Scattered Clouds
2:55 PM 84.4 °F 89.7 °F 71.4 °F 65% 30.01 in 10.0 mi SSE 17.3 mph - N/A   Scattered Clouds
3:15 PM 84.6 °F 89.7 °F 71.2 °F 64% 30.01 in 10.0 mi SSE 17.3 mph 20.7 mph N/A   Scattered Clouds
3:35 PM 84.2 °F 88.7 °F 70.5 °F 63% 30.01 in 10.0 mi SSE 18.4 mph 24.2 mph N/A   Scattered Clouds
3:55 PM 84.0 °F 88.7 °F 70.9 °F 64% 30.00 in 10.0 mi SSE 16.1 mph 23.0 mph N/A   Clear
4:15 PM 84.6 °F 90.3 °F 72.0 °F 66% 30.00 in 10.0 mi South 17.3 mph - N/A   Clear
4:35 PM 84.2 °F 89.0 °F 70.7 °F 64% 30.00 in 10.0 mi SSE 16.1 mph 23.0 mph N/A   Clear
4:55 PM 83.8 °F 88.6 °F 71.1 °F 65% 30.00 in 10.0 mi SSE 13.8 mph 24.2 mph N/A   Clear
5:15 PM 83.7 °F 88.9 °F 71.6 °F 67% 29.99 in 10.0 mi SSE 13.8 mph 18.4 mph N/A   Clear
5:35 PM 83.1 °F 87.8 °F 71.1 °F 67% 29.99 in 10.0 mi SSE 12.7 mph - N/A   Clear
5:55 PM 82.8 °F 87.4 °F 71.1 °F 68% 29.99 in 10.0 mi SSE 12.7 mph - N/A   Clear
6:15 PM 82.4 °F 86.7 °F 70.7 °F 68% 29.98 in 10.0 mi SSE 11.5 mph 17.3 mph N/A   Clear
6:35 PM 81.5 °F 85.5 °F 70.9 °F 70% 29.98 in 10.0 mi SSE 10.4 mph - N/A   Clear
6:55 PM 79.9 °F - 70.9 °F 74% 29.97 in 10.0 mi SSE 6.9 mph - N/A   Clear
7:15 PM 79.2 °F - 70.5 °F 75% 29.97 in 10.0 mi SSE 9.2 mph - N/A   Clear
7:35 PM 78.4 °F - 70.2 °F 76% 29.97 in 10.0 mi SE 8.1 mph - N/A   Clear
7:55 PM 77.9 °F - 69.8 °F 76% 29.96 in 10.0 mi SE 10.4 mph - N/A   Clear
8:15 PM 77.5 °F - 69.8 °F 77% 29.96 in 10.0 mi SE 10.4 mph - N/A   Clear
8:35 PM 77.4 °F - 69.1 °F 76% 29.96 in 10.0 mi SE 10.4 mph - N/A   Clear
8:55 PM 76.6 °F - 69.1 °F 77% 29.96 in 10.0 mi SE 8.1 mph - N/A   Clear
9:15 PM 76.5 °F - 68.7 °F 77% 29.97 in 10.0 mi SE 9.2 mph - N/A   Clear
9:35 PM 75.9 °F - 68.7 °F 78% 29.98 in 10.0 mi SSE 10.4 mph - N/A   Clear
9:55 PM 75.4 °F - 68.7 °F 80% 29.98 in 10.0 mi SSE 9.2 mph - N/A   Clear
10:15 PM 75.2 °F - 68.9 °F 81% 29.98 in 10.0 mi SSE 10.4 mph - N/A   Clear
10:35 PM 75.2 °F - 68.9 °F 81% 29.98 in 10.0 mi SSE 10.4 mph - N/A   Clear
10:55 PM 75.2 °F - 68.9 °F 81% 29.99 in 10.0 mi SSE 9.2 mph - N/A   Clear
11:15 PM 74.8 °F - 69.1 °F 82% 29.98 in 10.0 mi SSE 9.2 mph - N/A   Clear
11:35 PM 74.3 °F - 69.1 °F 84% 29.98 in 10.0 mi SSE 8.1 mph - N/A   Clear
11:55 PM 74.5 °F - 69.1 °F 83% 29.99 in 10.0 mi SSE 9.2 mph - N/A   Clear